Regional Weather Roundup
Issued by NWS Charleston, WV

Home | Current Version | Previous Version | Graphics & Text | Print | Product List | Glossary On
Versions: 1 2 3 4 5 6 7 8 9 10 11 12 13 14 15 16 17 18 19 20 21 22 23 24 25 26 27 28 29 30 31 32 33 34 35 36 37 38 39 40 41 42 43 44 45 46 47 48 49 50
000
ASUS41 KRLX 240010
RWRRLX
West Virginia Regional Weather Roundup
National Weather Service Charleston WV
700 PM EST MON JAN 23 2017

Note: "fair" indicates few or no clouds below 12,000 feet with no
significant weather and/or obstructions to visibility.

WVZ003-240100-
Northern Panhandle of West Virginia

CITY           SKY/WX    TMP DP  RH WIND       PRES   REMARKS
WHEELING       LGT RAIN  36  34  92 NE14G21   29.57R
$$

WVZ009-240100-
Northwest West Virginia

CITY           SKY/WX    TMP DP  RH WIND       PRES   REMARKS
PARKERSBURG    CLOUDY    41  37  86 NE9       29.58R
$$

WVZ006-240100-
Western West Virginia

CITY           SKY/WX    TMP DP  RH WIND       PRES   REMARKS
HUNTINGTON     CLOUDY    46  43  89 N5        29.53R
$$

WVZ015-240100-
West Central West Virginia

CITY           SKY/WX    TMP DP  RH WIND       PRES   REMARKS
CHARLESTON     LGT RAIN  43  38  82 NW8       29.51R
$$

WVZ022-031-240100-
North Central West Virginia

CITY           SKY/WX    TMP DP  RH WIND       PRES   REMARKS
CLARKSBURG     LGT RAIN  37  34  89 NE10      29.53R
MORGANTOWN     CLOUDY    37  34  89 N6        29.55R
$$

WVZ025-035-042-045-240100-
Southern West Virginia

CITY           SKY/WX    TMP DP  RH WIND       PRES   REMARKS
BECKLEY        LGT RAIN  41  38  89 CALM      29.45R FOG
LOGAN          CLOUDY    43  43 100 CALM      29.48R
BLUEFIELD      LGT RAIN  38  36  92 NE5       29.45R
LEWISBURG      DRIZZLE   37  35  95 NE3       29.45S
$$

WVZ047-240100-
Northern Mountains of West Virginia

CITY           SKY/WX    TMP DP  RH WIND       PRES   REMARKS
ELKINS         CLOUDY    38  29  70 N5        29.48R
$$

WVZ052-240100-
Eastern Panhandle of West Virginia

CITY           SKY/WX    TMP DP  RH WIND       PRES   REMARKS
MARTINSBURG    MIX PCPN  34  32  92 N13       29.56R FOG
PETERSBURG     MIX PCPN  36  35  94 N3        29.58R
$$




USA.gov is the U.S. government's official web portal to all federal, state and local government web resources and services.